This is the latest recevied weather packets stored in our database for station/object KG4LKY-5. If no packets are shown the sender has not sent any weather packets the latest 10 day(s).
| Time | Temp. | Humidity | Pressure | Rain* | Wind** | Luminosity | Snow |
|---|---|---|---|---|---|---|---|
| 1777621505 | 2.22° C | 100% | 1016.2 hPa | 0 mm | - | - | - |
| 1777621204 | 2.78° C | 100% | 1016.2 hPa | 0 mm | - | - | - |
| 1777620904 | 1.67° C | 100% | 1016.3 hPa | 0 mm | - | - | - |
| 1777620604 | 2.78° C | 100% | 1016.2 hPa | 0 mm | - | - | - |
| 1777620304 | 2.78° C | 100% | 1016.3 hPa | 0 mm | - | - | - |
| 1777620003 | 2.22° C | 100% | 1016.4 hPa | 0 mm | - | - | - |
| 1777619703 | 2.78° C | 100% | 1016.3 hPa | 0 mm | - | - | - |
| 1777619103 | 3.33° C | 100% | 1016.3 hPa | 0 mm | - | - | - |
| 1777618802 | 2.78° C | 100% | 1016.4 hPa | 0 mm | - | - | - |
| 1777618502 | 2.78° C | 100% | 1016.5 hPa | 0 mm | - | - | - |
| 1777618202 | 3.33° C | 100% | 1016.4 hPa | 0 mm | - | - | - |
| 1777617901 | 3.33° C | 100% | 1016.4 hPa | 0 mm | - | - | - |
| 1777617601 | 2.78° C | 100% | 1016.4 hPa | 0 mm | - | - | - |
| 1777617001 | 3.33° C | 100% | 1016.6 hPa | 0 mm | - | - | - |
| 1777616700 | 3.33° C | 100% | 1016.5 hPa | 0 mm | - | - | - |
| 1777616400 | 3.33° C | 100% | 1016.5 hPa | 0 mm | - | - | - |
| 1777616100 | 3.33° C | 100% | 1016.4 hPa | 0 mm | - | - | - |
| 1777615799 | 3.33° C | 100% | 1016.5 hPa | 0 mm | - | - | - |
| 1777614898 | 3.89° C | 100% | 1016.5 hPa | 0 mm | - | - | - |
| 1777614597 | 3.89° C | 100% | 1016.5 hPa | 0 mm | - | - | - |
| 1777614297 | 3.33° C | 100% | 1016.5 hPa | 0 mm | - | - | - |
| 1777613996 | 3.89° C | 100% | 1016.4 hPa | 0 mm | - | - | - |
| 1777613696 | 3.33° C | 100% | 1016.5 hPa | 0 mm | - | - | - |
| 1777613395 | 3.33° C | 100% | 1016.6 hPa | 0 mm | - | - | - |
| 1777613096 | 3.33° C | 100% | 1016.7 hPa | 0 mm | - | - | - |
* Rain since midnight (hover to see other rain measurements)
** Current wind speed in m/s (hover to see current wind gust speed)